Flag for Mexico Weather past 2 weeks in Playa del Carmen, Quintana Roo, Mexico

68 °F

Passing clouds.

Feels Like: 68 °F
Forecast: 76 / 83 °F
Wind: 3 mph from East

Location: Cozumel Civ / Mil

Current Time: Nov 28, 2015 at 1:57:17 AM

Latest Report: Nov 28, 2015 at 12:46 AM

Visibility: 7 mi

Pressure: 30.01 "Hg

Humidity: 94%

Dew point: 66 °F

Location of Playa del CarmenLocation

Historic Weather in Playa del Carmen — Graph


Playa del Carmen temperature yesterday

Maximum temperature yesterday: 79 °F (at 1:42 PM)
Minimum temperature yesterday: 70 °F (at 2:45 AM)
Average temperature yesterday: 74 °F

Past Weeks' High & Low Weather Summary

High82 °F (Nov 16, 10:41 AM)100% (Nov 13, 12:49 AM)30.14 "Hg (Nov 13, 12:49 AM)
Low68 °F (Nov 14, 7:43 PM)57% (Nov 21, 11:42 PM)29.56 "Hg (Nov 27, 2:45 AM)
Average75 °F94%29.94 "Hg
* Reported Nov 13 12:49 AM — Nov 28 12:46 AM, Playa del Carmen, Weather by CustomWeather, © 2015

Note: Actual official high and low records may vary slightly from our data, if they occured in-between our weather recording intervals... More about our weather records


Playa del Carmen weather history for previous 24 hours

Time TempWeatherWind HumidityBarometerVisibility
12:46 AM
Sat, Nov 28
68 °FPassing clouds.3 mph94%30.01 "Hg7 mi
11:41 PM
Fri, Nov 27
72 °FPassing clouds.5 mph88%30.05 "Hg7 mi
10:42 PM70 °FPassing clouds.3 mph94%30.05 "Hg7 mi
9:40 PM72 °FPassing clouds.3 mph88%30.06 "Hg7 mi
8:40 PM72 °FPassing clouds.6 mph88%30.03 "Hg7 mi
7:41 PM73 °FPassing clouds.3 mph83%30.03 "Hg7 mi
6:44 PM73 °FPassing clouds.5 mph83%30.00 "Hg8 mi
5:40 PM75 °FPassing clouds.9 mph78%29.99 "Hg8 mi
4:50 PM77 °FScattered clouds.8 mph74%29.99 "Hg8 mi
3:41 PM77 °FScattered clouds.10 mph74%30.02 "Hg8 mi
2:42 PM79 °FPartly sunny.10 mph74%30.01 "Hg8 mi
1:42 PM79 °FScattered clouds.12 mph79%30.02 "Hg8 mi
9:40 AM77 °FScattered clouds.16 mph83%30.09 "Hg8 mi
8:40 AM75 °FScattered clouds.9 mph89%30.06 "Hg8 mi
7:48 AM73 °FScattered clouds.7 mph89%30.04 "Hg8 mi
5:51 AM70 °FPassing clouds.5 mph100%30.04 "Hg7 mi
4:41 AM72 °FPassing clouds.5 mph94%30.00 "Hg7 mi
2:45 AM70 °FPassing clouds.No wind100%29.56 "Hg7 mi
1:48 AM72 °FPassing clouds.6 mph100%30.03 "Hg7 mi
Weather by CustomWeather, © 2015

See weather overviewHow to use our weather pages